Dewpoint
57 57 57 57 57 57 57 56 56 56 56 56 56 56 56 56 56 57 57 57 57 57 56 57 57 58 53 36 34 53 69 68 44 32 28 36 34 32 29 53 59 58 58 59 60 57 55
57 57 57 58 59 58 58 57 56 57 58 58 58 57 57 57 57 57 57 57 56 56 56 57 58 58 49 29 46 60 57 46 35 32 33 36 34 31 29 34 54 56 58 58 59 56 55
60 60 60 60 60 59 59 59 58 58 58 57 57 57 56 57 57 57 57 57 56 56 56 57 57 56 44 30 48 50 42 35 31 28 31 34 35 22 22 38 58 57 55 56 57 56 54
60 60 61 60 60 60 59 59 57 57 57 57 57 57 57 57 57 57 56 55 55 56 57 58 58 51 26 30 48 42 37 30 28 30 27 27 26 21 23 44 57 56 54 50 56 56 57
61 61 61 61 60 59 59 57 56 56 56 56 57 57 56 57 57 56 55 55 56 57 58 59 51 48 41 52 43 45 37 29 27 25 27 24 18 18 28 35 48 51 48 51 53 57 58
61 61 61 61 60 59 59 58 58 56 56 56 56 56 56 56 55 55 54 54 59 58 56 55 52 42 38 36 34 39 40 31 30 24 23 19 13 12 21 32 43 43 48 52 50 54 55
61 61 61 60 59 59 59 58 58 56 55 57 56 57 56 56 55 53 51 47 39 38 50 34 33 34 33 34 35 34 34 32 28 22 20 15 8 8 11 27 34 38 43 47 46 54 53
61 61 60 59 59 59 58 58 57 57 56 57 56 56 56 55 54 53 47 33 39 42 38 39 39 38 36 37 33 30 29 27 26 24 16 14 11 10 10 19 21 23 23 24 48 54 53
61 60 59 58 59 59 58 58 57 57 56 55 55 56 55 54 53 48 45 39 45 43 35 32 35 37 35 36 33 33 26 25 23 23 21 16 14 14 12 10 12 14 16 26 35 56 56
60 60 59 59 59 59 57 57 57 56 55 55 56 55 54 52 46 46 41 45 45 42 27 26 31 33 35 35 31 35 25 24 24 22 21 21 22 19 15 10 8 8 13 16 50 51 45
60 60 60 59 59 58 57 57 57 56 55 55 55 54 53 52 48 44 39 46 44 34 16 26 32 32 29 26 23 23 26 24 22 21 20 19 21 20 15 14 10 11 22 37 54 44 42
59 59 59 60 59 58 57 56 55 55 55 55 54 53 52 48 47 48 47 46 31 22 17 28 28 27 23 23 22 21 23 23 24 21 23 20 23 20 18 18 13 21 29 28 36 41 38
58 57 57 59 59 57 56 56 55 54 55 53 52 52 51 50 43 47 46 30 24 21 22 26 28 22 23 21 23 21 21 20 19 18 22 21 21 20 21 19 19 19 21 27 34 38 39
57 56 56 58 57 57 56 56 56 55 53 53 51 50 50 49 50 49 39 24 21 22 22 22 18 23 21 22 23 20 19 19 20 21 20 19 16 19 20 19 17 17 23 18 16 17 21
57 55 55 58 57 57 56 56 55 54 53 52 50 47 47 48 50 46 31 23 19 21 22 18 17 23 23 21 23 19 18 18 18 20 18 19 19 24 21 19 18 18 16 18 19 21 20
55 56 57 57 57 57 56 55 54 54 53 52 47 46 45 49 49 41 32 28 24 27 28 23 17 18 16 18 17 19 18 19 18 20 21 20 23 23 20 17 21 18 23 20 22 15 19
53 55 57 57 57 57 56 55 54 53 52 51 46 39 43 49 44 35 31 33 35 34 29 26 25 22 17 15 17 19 19 21 20 20 22 25 25 21 20 18 16 19 23 27 28 29 27
55 55 57 57 57 57 55 53 54 52 52 49 44 31 43 45 35 36 34 37 35 31 33 31 29 26 21 18 18 19 19 21 24 23 19 26 22 22 21 24 22 21 21 25 19 20 31
56 57 57 57 57 56 54 53 53 52 52 48 41 42 47 43 37 34 37 37 34 32 31 30 26 24 23 22 20 20 22 27 27 24 23 24 22 20 19 15 17 15 22 29 28 31 32
56 57 57 57 56 55 53 54 53 52 52 46 44 41 44 44 40 38 38 37 36 37 37 38 36 38 39 35 22 23 28 26 27 32 50 36 23 21 20 18 17 16 23 26 28 28 29
54 57 56 55 55 54 54 54 53 53 52 47 44 42 43 41 41 41 39 38 37 36 38 38 39 38 38 39 34 21 26 24 29 45 23 19 19 24 22 20 17 20 24 24 22 22 20
53 54 56 55 55 54 53 52 54 53 52 48 44 43 44 42 42 40 39 37 37 39 38 36 37 38 38 40 36 39 40 31 21 24 18 17 19 17 19 21 24 26 30 29 26 28 35
51 53 54 55 55 53 53 52 52 53 50 44 45 45 45 41 39 38 39 41 42 42 41 39 39 39 38 37 42 43 43 42 41 29 19 19 20 18 21 29 26 25 26 32 34 35 34
49 51 52 54 55 55 53 53 53 53 52 46 44 44 42 38 41 42 43 43 42 42 40 40 41 39 39 44 42 39 41 43 42 26 26 24 26 26 27 27 21 25 32 34 34 38 41
48 49 50 52 52 53 54 54 53 54 53 50 47 45 45 39 41 41 41 42 41 41 41 41 41 41 42 43 42 34 25 23 25 28 29 28 28 24 23 22 24 31 36 34 33 33 45
48 49 50 50 51 51 52 53 53 53 53 51 49 48 45 43 39 43 42 42 39 40 41 41 43 44 44 43 37 36 30 26 24 26 29 26 28 27 25 19 19 25 33 38 37 32 42
48 48 48 48 48 48 49 51 53 54 53 52 49 51 49 46 43 43 41 41 42 42 41 43 44 42 44 40 33 35 38 33 28 26 25 27 28 25 29 23 25 29 39 41 31 30 39
48 48 48 47 48 47 48 48 51 54 54 53 49 50 49 47 44 44 44 43 44 44 40 42 44 42 43 39 40 37 34 36 32 31 27 26 26 26 29 27 23 41 44 37 39 44 47
49 50 50 49 49 48 49 49 50 52 54 54 48 50 53 49 45 47 46 47 46 46 45 44 44 45 44 40 42 43 41 37 34 33 35 28 30 30 30 30 37 45 43 46 46 47 50
Lifted_Index
14 14 14 14 14 14 14 14 15 15 15 15 15 15 15 15 14 14 14 14 15 16 15 15 14 14 13 10 8 7 6 8 11 13 11 9 7 6 5 2 -0 -1 -1 -1 -1 -1 -1
13 13 13 13 14 14 14 14 14 14 14 14 14 14 15 15 14 14 14 14 15 15 15 15 14 14 13 10 8 7 8 9 11 12 11 10 9 8 6 3 0 -1 -1 -1 -1 -1 -1
12 12 13 13 13 13 13 13 13 14 14 14 14 14 14 14 14 14 14 14 14 15 14 14 14 13 12 10 8 8 10 11 12 12 12 11 10 9 7 3 0 -1 -1 -1 -1 -1 -1
11 12 12 12 13 13 13 13 13 13 13 13 13 13 14 14 14 14 14 14 14 13 13 13 13 12 11 10 9 9 10 11 12 12 11 11 11 9 6 3 -0 -1 -1 -1 -0 -1 -1
11 11 12 12 12 12 12 12 12 12 12 13 13 13 13 13 13 14 14 13 12 11 12 12 12 11 10 9 9 9 9 10 10 11 11 11 9 7 5 2 0 -1 -1 -1 -0 -1 -1
10 11 11 11 11 12 12 12 12 12 13 13 13 13 12 12 13 13 13 12 11 10 10 11 10 10 9 9 9 9 9 9 9 9 9 9 7 5 3 2 1 0 -0 -0 -0 -0 -0
10 10 11 11 11 11 11 12 12 12 13 13 13 13 13 12 12 13 13 11 10 10 10 10 10 9 9 9 9 10 9 8 8 8 8 8 6 3 2 2 2 1 1 1 1 -0 -1
10 10 10 10 11 11 11 11 11 12 12 13 13 13 12 12 12 13 12 11 11 10 10 10 9 9 9 9 9 9 9 8 8 7 7 6 5 3 2 2 2 2 2 2 1 -1 -2
11 10 10 10 10 11 11 11 11 11 12 12 12 12 12 12 12 12 12 11 11 10 9 9 9 9 9 9 9 9 9 8 7 7 7 6 5 4 3 3 2 2 2 3 2 -1 -2
11 11 10 10 11 11 11 11 11 11 11 12 12 12 12 12 12 12 11 11 11 9 7 7 8 8 8 8 8 9 9 8 8 7 7 6 6 5 4 3 2 1 3 3 1 -1 -2
11 11 11 11 11 12 12 12 12 12 11 12 12 12 12 12 12 11 11 11 10 7 5 5 7 7 8 8 8 8 8 8 8 7 7 6 6 5 5 4 2 2 2 1 -1 -2 -2
11 11 11 12 12 13 13 13 13 12 12 12 12 12 12 12 12 11 11 10 9 6 4 5 6 6 7 7 7 8 8 8 8 7 7 6 6 5 4 4 3 2 1 -1 -2 -2 -2
12 12 12 12 13 13 13 13 13 13 12 12 12 12 12 11 11 11 11 9 7 5 5 5 5 5 6 6 7 7 7 7 7 7 6 5 5 4 4 3 3 2 1 -1 -1 -1 -1
13 13 13 13 13 14 14 14 14 13 12 12 12 12 11 10 10 10 10 8 6 6 5 5 4 4 5 5 5 6 6 7 7 6 5 5 4 3 3 2 2 2 2 1 1 0 0
14 14 14 13 14 14 14 14 14 13 12 12 12 12 11 10 10 10 9 7 6 7 6 5 4 3 3 4 4 5 5 6 6 6 5 4 3 2 2 2 2 2 3 2 2 2 1
14 14 14 14 14 14 13 13 13 13 12 12 12 11 10 10 10 9 8 7 7 8 7 6 4 3 2 3 3 4 4 4 4 5 4 3 2 1 1 1 2 2 3 3 3 2 1
15 14 14 13 13 13 13 13 12 12 12 12 12 11 10 9 9 9 8 8 8 8 7 6 4 3 2 2 3 3 3 3 3 3 3 2 1 1 1 1 1 2 3 3 3 2 2
14 14 13 13 13 13 13 12 12 12 12 12 12 10 9 8 8 8 7 7 7 7 6 5 5 4 3 3 3 3 3 2 2 1 1 1 1 1 1 1 1 2 2 3 3 3 3
13 13 13 13 13 13 13 12 12 13 12 12 11 10 8 7 7 7 7 6 6 6 5 5 4 4 4 3 3 3 2 2 1 1 1 1 1 0 0 1 1 1 2 2 3 3 3
13 13 13 13 13 13 12 12 12 12 12 11 10 9 7 6 6 6 6 6 5 5 5 4 4 4 3 3 2 2 2 2 1 1 0 0 0 0 0 1 1 1 2 2 2 2 2
14 13 13 13 13 12 12 12 12 12 11 10 9 8 7 6 6 5 5 5 5 4 4 4 3 3 2 2 2 2 2 1 1 1 1 0 0 1 1 1 1 1 2 2 2 2 2
15 14 13 13 13 12 12 11 11 12 11 9 8 8 7 7 6 5 5 4 4 4 4 3 3 3 2 2 1 1 1 1 1 1 0 0 0 1 1 1 1 1 2 2 2 3 3
16 15 14 13 13 12 12 11 11 11 11 9 8 8 7 7 7 6 5 5 5 4 4 3 3 3 2 2 1 1 1 1 1 1 0 0 1 1 2 2 2 2 2 2 3 3 3
17 16 15 14 13 12 12 11 11 11 10 10 9 8 7 7 7 6 6 5 5 5 4 4 3 3 2 2 1 1 0 0 1 1 1 1 1 2 2 2 2 3 3 3 3 3 3
17 16 16 14 13 13 12 11 11 11 10 10 9 8 7 7 7 6 6 6 5 5 4 4 3 3 2 1 1 1 0 0 0 1 2 2 2 2 2 2 2 3 3 3 3 4 4
17 16 16 15 14 13 12 12 11 10 10 9 9 8 7 7 7 6 6 6 5 5 4 4 3 2 2 1 0 0 0 0 0 1 2 2 2 2 2 2 2 2 3 3 4 4 4
16 16 15 15 14 13 13 12 11 10 9 9 9 8 8 7 7 6 6 6 6 5 4 4 3 2 1 -0 -0 -0 0 0 0 1 1 2 2 2 2 2 2 2 2 3 3 4 3
15 15 15 14 14 13 13 12 11 9 9 9 9 8 8 7 7 7 7 6 6 5 5 4 3 2 1 -0 -1 -0 -0 0 0 0 0 1 2 2 2 2 2 2 2 2 2 2 2
14 14 14 14 13 13 12 12 11 10 9 9 9 9 8 7 7 7 7 6 6 5 5 4 3 2 1 -0 -1 -1 -0 0 0 0 -0 1 2 2 2 2 2 2 1 1 1 2 2